Location: Babice
(50.3480°N, 22.9363°E)
Time: 00:48:30
(UTC+00:00)

ADEOS II - Pass Details

Date: 14 July 2020
Orbit: 799 x 801 km, 98.5° (Epoch: 06 August)

Event Time Altitude Azimuth Distance (km) Brightness Sun altitude
Rises 01:15:35 0° 13° (NNE) 3,323 6.6 -9.7°
Reaches altitude 10° 01:17:56 10° 12° (NNE) 2,388 5.7 -9.5°
Maximum altitude 01:23:12 75° 288° (WNW) 833 2.1 -8.9°
Drops below altitude 10° 01:28:25 10° 204° (SSW) 2,370 3.9 -8.4°
Enters shadow 01:28:37 - 204° (SSW) 2,446 4.0 -8.4°
